Regional Weather Roundup
Issued by NWS Jackson, KY

Home | Current Version | Previous Version | Graphics & Text | Print | Product List | Glossary On
Versions: 1 2 3 4 5 6 7 8 9 10 11 12 13 14 15 16 17 18 19 20 21 22 23 24 25 26 27 28 29 30 31 32 33 34 35 36 37 38 39 40 41 42 43 44 45 46 47 48 49 50
000
ASUS43 KJKL 181010
RWRJKL

EAST KENTUCKY HOURLY WEATHER ROUNDUP
NATIONAL WEATHER SERVICE JACKSON KY
600 AM EDT FRI AUG 18 2017

NOTE: "FAIR" INDICATES FEW OR NO CLOUDS BELOW 12,000 FEET WITH
NO SIGNIFICANT WEATHER AND/OR OBSTRUCTIONS TO VISIBILITY.

* THESE REPORTS ARE NOT UNDER NWS QUALITY CONTROL AND MAY NOT
  REPORT WEATHER SUCH AS PRECIPITATION AND FOG.

KYZ079-080-083-085-087-088-110-112-115-119-120-181100
...EASTERN KENTUCKY...

CITY           SKY/WX    TMP DP  RH WIND       PRES   REMARKS
JACKSON        LGT RAIN  72  71  97 CALM      29.93S FOG
LONDON         RAIN      73  71  93 SW5       29.94R FOG
SOMERSET*      CLOUDY    72  72 100 W7        29.94R
MONTICELLO*    CLOUDY    73  72  96 W12       29.96R
WILLIAMSBURG*  CLOUDY    72  72 100 SW5       29.95R
MIDDLESBORO*   CLOUDY    73  73 100 CALM      29.96R
HARLAN APT*    CLOUDY    70  68  94 CALM      29.96S VSB 3/4
PIKE CO APT*   CLOUDY    73  73 100 CALM      29.94S
BIG SANDY APT* LGT RAIN  74  74 100 CALM      29.93S
MOREHEAD APT*  CLOUDY    72  70  94 SW6       29.92R
$$

KYZ035-036-041-042-044-050-067-078-099-181100
...CENTRAL KENTUCKY...

CITY           SKY/WX    TMP DP  RH WIND       PRES   REMARKS
MT STERLING*   CLOUDY    72  72 100 W5        29.92R
FLEMING/MASON* CLOUDY    73  72  98 SW7       29.90S
DANVILLE*      CLOUDY    72  72 100 W6        29.93R
LEXINGTON      CLOUDY    74  72  93 W6        29.91R
FRANKFORT      CLOUDY    75  72  90 W5        29.89R
LOUISVILLE     PTCLDY    75  72  90 SW3       29.89R
LEBANON*       CLOUDY    73  73 100 W6        29.92R
GLASGOW*       CLOUDY    74  74 100 W5        29.92R
BOWLING GREEN  CLOUDY    76  74  93 W8        29.93R
$$

KYZ091>093-OHZ055-061-077-WVZ005-015-034-035-042-181100
...SOUTHERN OHIO/WEST VIRGINIA...

CITY           SKY/WX    TMP DP  RH WIND       PRES   REMARKS
COVINGTON      PTCLDY    73  73 100 SW3       29.88R FOG
COLUMBUS       CLOUDY    74  74 100 SW7       29.84R
DAYTON         PTCLDY    71  69  93 SW8       29.87R
WILMINGTON     CLOUDY    72  72 100 SW7       29.86R FOG
HUNTINGTON     LGT RAIN  74  72  93 SW8       29.89R
CHARLESTON     CLOUDY    75  70  84 CALM      29.89S
PINEVILLE*     CLEAR     67  67  97 MISG      30.03R FOG
BECKLEY        CLOUDY    70  68  93 SW7       30.01R
BLUEFIELD      CLEAR     69  65  86 W6        30.05R
LOGAN CO APT*  PTSUNNY   73  72  94 CALM      29.94S
$$

VAZ002-007-008-TNZ017-027-036-066-071-181100
...SOUTHWEST VIRGINIA/EAST TENNESSEE...

CITY           SKY/WX    TMP DP  RH WIND       PRES   REMARKS
WISE*          MOCLDY    72  72 100 SW8       30.04R
JONESVILLE*      N/A     70  70 100 CALM      29.99R
ABINGDON*      CLOUDY    71  71 100 CALM      30.02S
BRISTOL        CLOUDY    71  70  96 CALM      29.99R
MORRISTOWN*    PTSUNNY   77  72  83 W7        29.96S
SEVIERVILLE*   PTSUNNY   75  70  83 SW6       29.95S
KNOXVILLE      LGT RAIN  76  71  85 W9        29.95R
LAFOLLETTE*      N/A     73  72  94 SW7       29.99R FOG
OAK RIDGE      RAIN      75  72  90 CALM      29.97R FOG
CROSSVILLE     CLOUDY    71  70  96 W3        30.01R
NASHVILLE      CLOUDY    76  73  91 W5        29.95R
$$

...KEY TO REMARKS...
VSB - VISIBILITY IN MILES
WCI - WIND CHILL INDEX
HX  - HEAT INDEX

$$



USA.gov is the U.S. government's official web portal to all federal, state and local government web resources and services.